Location: Newark
(33.6333°S, 78.8500°W)
Time: 18:46:48
(UTC+00:00)

Courier 1B - Pass Details

Date: 25 September 2019
Orbit: 962 x 1209 km, 28.3° (Epoch: 22 October)

Event Time Altitude Azimuth Distance (km) Brightness Sun altitude
Rises 18:51:10 0° 328° (NNW) 4,085 11.4 49.2°
Reaches altitude 10° 18:54:50 10° 343° (NNW) 3,136 10.9 48.7°
Maximum altitude 19:00:19 21° 28° (NNE) 2,425 10.0 47.9°
Drops below altitude 10° 19:05:47 10° 72° (ENE) 3,123 10.0 47.1°
Sets 19:09:24 0° 87° (E) 4,063 10.4 46.6°
